Temp
55 55 54 54 53 52 49 44 37 46 49 36 35 33 37 42 44 47 46 45 43 37 38 38 41 39 40 45 44 37 40 38 32 38 48 51 47 41 36 27 26 31 28 28
54 54 54 53 51 52 45 38 37 46 46 32 33 36 37 40 38 42 39 37 38 38 37 34 38 39 43 45 42 37 41 36 28 36 45 47 41 42 41 39 37 27 23 29
54 53 52 51 51 50 45 39 32 35 40 38 36 34 34 35 40 38 38 37 39 38 36 40 34 36 41 44 43 41 40 36 30 26 33 38 33 37 40 37 28 28 30 33
51 51 51 50 49 48 45 39 33 38 31 33 35 38 36 34 34 38 39 36 39 37 30 34 35 39 39 42 43 41 40 29 33 35 36 36 35 35 36 34 35 28 32 35
51 50 50 49 48 47 41 34 34 35 35 37 35 36 35 35 35 36 34 35 40 40 33 36 31 36 36 35 41 39 41 29 33 26 34 36 32 36 38 37 38 36 37 36
50 49 49 48 47 47 38 39 40 39 35 35 35 35 36 36 38 36 40 39 36 34 37 42 43 44 42 41 37 37 35 31 27 23 34 33 26 33 38 39 39 36 30 38
48 48 47 47 47 47 43 42 42 37 32 36 36 37 37 37 39 37 40 42 38 41 45 45 45 43 42 42 41 42 34 33 31 25 31 18 37 47 39 34 39 41 34 38
48 48 48 47 48 47 50 48 46 40 35 42 38 39 39 40 41 39 40 41 44 46 42 33 29 35 35 38 41 41 41 35 27 24 27 33 37 36 34 32 34 35 32 36
47 47 48 49 48 48 51 47 51 48 37 39 43 40 41 38 38 37 38 43 45 43 37 30 22 24 30 29 34 43 42 36 28 27 20 18 36 43 45 44 28 36 33 32
48 48 48 48 48 48 52 47 47 50 38 44 43 40 39 42 39 38 38 39 38 42 31 26 26 27 31 25 26 31 32 31 25 26 23 30 43 42 42 24 28 33 34 33
48 48 48 48 47 46 51 44 47 49 43 42 42 42 41 40 41 34 37 36 35 34 27 28 30 28 33 29 34 31 29 26 26 28 22 20 43 39 25 31 33 36 34 36
48 48 48 48 47 47 49 45 48 49 44 42 45 47 48 47 47 43 40 37 36 38 32 32 34 29 32 30 23 38 26 32 27 28 31 42 43 34 36 36 32 33 34 39
48 48 48 47 47 46 49 47 47 47 43 44 43 43 48 49 49 51 38 41 43 39 43 38 34 27 35 26 30 32 38 41 32 31 37 36 37 40 40 37 37 39 40 43
48 48 48 47 46 46 48 47 47 47 43 34 41 47 43 49 49 48 48 46 45 45 43 36 32 30 39 31 33 31 37 38 32 30 34 37 39 37 38 39 41 40 43 45
47 47 47 47 46 45 48 48 49 48 42 33 40 45 45 47 47 45 46 44 42 41 34 31 29 37 34 38 36 33 40 34 28 27 37 32 35 41 40 37 40 41 41 43
47 47 48 47 45 46 49 37 48 50 47 36 32 45 42 44 43 42 41 42 41 40 32 32 37 41 33 28 29 40 42 43 43 37 42 39 39 40 39 41 42 42 41 40
47 47 47 46 45 51 44 40 45 45 47 36 32 39 43 43 43 42 40 41 39 38 32 33 35 35 32 30 26 39 42 44 42 43 40 33 39 37 43 42 44 42 42 40
47 47 46 46 46 46 45 47 44 46 44 42 30 34 39 42 37 34 40 33 32 33 33 35 33 36 33 27 38 40 40 39 36 38 41 37 37 40 41 43 42 41 38 37
46 45 45 48 48 43 45 43 43 45 40 32 34 30 27 40 35 34 34 34 28 37 30 32 35 32 27 35 38 41 36 34 35 39 38 39 38 38 38 39 39 39 38 36
44 47 42 32 43 42 43 42 36 36 37 38 32 40 30 35 35 32 30 34 31 27 34 38 31 33 42 43 43 39 38 39 38 35 35 36 36 36 36 36 38 39 39 39
48 40 36 43 43 43 37 30 29 32 28 36 38 38 32 39 29 31 36 32 33 26 30 30 31 31 33 38 39 41 39 38 38 39 39 39 38 36 36 36 37 37 37 36
44 43 44 41 37 32 27 29 32 30 32 39 36 37 36 36 37 32 34 30 31 25 34 30 28 33 40 41 40 40 39 38 37 39 38 38 37 38 37 38 38 38 37 35
46 40 33 32 31 24 22 21 28 29 36 38 36 32 38 35 33 32 32 27 28 38 29 30 33 36 37 37 37 38 40 39 39 39 40 40 39 40 40 39 41 40 37 36
34 30 24 27 24 27 31 34 36 38 38 37 37 34 35 38 32 33 27 34 33 27 26 28 33 36 37 36 36 36 38 38 38 39 39 39 39 37 36 33 33 33 32 33
32 32 25 27 35 35 35 36 36 40 41 39 35 35 35 32 30 33 32 27 25 30 29 31 34 36 36 36 34 35 36 34 36 38 36 33 33 32 33 33 33 33 33 32
34 33 29 34 30 31 31 33 33 41 41 41 36 31 29 29 32 28 28 27 27 29 32 35 34 33 33 33 35 35 34 34 34 36 35 35 32 31 32 34 35 34 33 33
32 30 35 33 33 31 33 35 38 43 37 31 34 27 27 33 28 27 34 28 30 33 36 37 37 34 33 32 32 31 31 34 34 35 34 34 34 34 37 35 36 37 37 33
MSLP
1009.31 1009.73 1010.12 1010.79 1011.69 1013.45 1014.17 1015.58 1016.96 1018.02 1017.92 1018.34 1018.16 1017.67 1017.20 1016.73 1016.08 1016.06 1015.96 1015.89 1015.67 1015.90 1015.93 1015.81 1015.70 1015.60 1016.56 1017.25 1017.46 1017.36 1017.57 1016.50 1014.02 1012.65 1012.36 1011.78 1012.11 1012.63 1013.84 1013.94 1012.83 1011.63 1009.87 1006.62
1008.56 1009.05 1009.58 1010.44 1011.24 1011.95 1013.79 1015.64 1017.43 1017.94 1017.81 1017.85 1017.73 1017.45 1017.48 1017.03 1016.78 1016.51 1016.71 1016.83 1016.91 1017.10 1016.98 1016.88 1016.73 1016.89 1017.95 1017.97 1018.05 1018.19 1017.91 1017.00 1015.27 1011.68 1011.50 1012.09 1012.48 1013.23 1013.77 1013.75 1013.41 1011.67 1010.73 1005.73
1007.90 1008.46 1009.26 1010.18 1011.57 1012.15 1013.11 1015.52 1017.50 1018.37 1018.11 1017.61 1017.18 1017.12 1017.30 1017.22 1017.07 1017.18 1017.34 1017.60 1017.62 1017.36 1017.27 1017.33 1017.29 1017.37 1017.88 1018.17 1018.15 1018.55 1018.66 1017.76 1016.97 1015.23 1013.75 1014.50 1013.43 1013.61 1013.49 1013.51 1012.61 1011.35 1009.93 1007.28
1008.12 1008.96 1010.12 1011.02 1011.71 1012.36 1012.88 1015.08 1016.15 1016.15 1017.18 1017.19 1016.99 1016.89 1016.98 1016.87 1017.43 1017.60 1017.70 1017.89 1017.72 1017.58 1017.66 1017.44 1017.33 1017.51 1017.74 1017.98 1017.90 1018.05 1018.06 1017.56 1017.20 1016.39 1015.29 1014.64 1013.90 1012.97 1012.41 1012.45 1011.82 1011.11 1009.05 1007.09
1009.27 1010.27 1010.86 1011.64 1012.18 1012.71 1013.70 1015.18 1016.04 1016.38 1016.18 1016.29 1016.66 1016.42 1016.34 1016.36 1017.00 1017.47 1017.54 1017.49 1017.71 1017.66 1017.49 1017.38 1017.57 1017.72 1017.91 1017.70 1017.48 1017.52 1017.82 1017.49 1017.00 1016.13 1015.41 1014.43 1012.89 1011.79 1011.31 1011.02 1010.71 1010.10 1009.11 1006.42
1009.95 1010.78 1011.45 1011.84 1012.73 1012.86 1014.35 1015.30 1015.79 1015.92 1016.23 1015.92 1016.09 1015.91 1016.09 1016.41 1016.81 1017.44 1017.31 1017.36 1017.92 1017.95 1017.81 1017.77 1017.85 1017.85 1017.72 1017.42 1017.22 1017.10 1017.28 1017.12 1016.89 1015.35 1014.60 1013.41 1012.06 1010.49 1010.16 1010.02 1010.26 1010.02 1008.90 1007.66
1010.59 1011.42 1012.04 1012.60 1013.08 1013.24 1013.86 1015.11 1015.49 1015.46 1015.77 1015.73 1015.55 1015.83 1016.11 1016.35 1016.51 1016.80 1017.18 1017.39 1017.50 1018.01 1018.32 1018.21 1017.84 1017.58 1017.00 1016.64 1016.24 1016.58 1016.46 1016.37 1016.34 1015.13 1013.87 1012.11 1010.13 1009.93 1010.76 1010.84 1010.35 1009.81 1009.85 1008.64
1011.65 1012.16 1012.77 1013.27 1013.72 1014.04 1014.13 1014.97 1014.86 1014.81 1014.71 1014.82 1015.52 1015.67 1015.69 1016.38 1016.81 1017.04 1017.24 1017.61 1017.70 1018.23 1018.28 1018.01 1017.26 1016.03 1015.66 1014.90 1014.83 1014.86 1015.29 1015.68 1015.17 1014.35 1012.57 1011.21 1010.54 1010.80 1011.22 1010.74 1008.38 1010.39 1010.29 1009.28
1012.22 1012.79 1013.41 1013.66 1013.83 1014.22 1014.40 1015.24 1015.01 1014.58 1014.72 1014.65 1014.83 1015.29 1015.65 1015.94 1016.28 1017.10 1017.24 1018.02 1018.20 1018.36 1018.18 1018.12 1017.15 1015.59 1014.80 1014.37 1014.17 1014.25 1014.37 1015.16 1015.27 1014.02 1012.74 1011.06 1009.75 1010.24 1011.00 1010.53 1009.13 1010.29 1010.64 1009.55
1013.08 1013.63 1013.91 1013.91 1014.04 1014.54 1014.38 1015.57 1015.70 1014.63 1014.86 1015.44 1015.26 1015.23 1015.65 1015.94 1016.18 1016.51 1017.14 1017.80 1018.24 1018.15 1017.78 1017.44 1016.77 1015.77 1015.43 1014.70 1013.99 1013.69 1013.82 1014.12 1013.97 1013.34 1012.22 1011.11 1010.63 1011.38 1011.40 1011.16 1011.13 1010.66 1010.38 1009.33
1013.84 1014.10 1014.27 1014.52 1014.60 1014.92 1014.85 1016.08 1015.95 1015.15 1014.84 1015.58 1016.19 1016.35 1016.21 1016.54 1016.28 1016.49 1017.87 1018.23 1017.96 1018.03 1017.69 1017.09 1016.26 1015.95 1014.94 1014.69 1014.24 1014.01 1013.88 1013.75 1013.50 1012.82 1012.08 1011.37 1011.46 1011.83 1013.24 1012.75 1011.60 1011.27 1010.22 1009.09
1014.00 1014.45 1014.86 1015.39 1015.33 1015.32 1015.35 1015.78 1016.32 1015.95 1015.58 1015.92 1016.55 1016.53 1016.73 1016.46 1016.55 1016.59 1017.30 1017.46 1017.25 1017.14 1016.98 1017.10 1016.65 1016.13 1015.46 1014.95 1014.21 1013.94 1013.99 1013.80 1013.59 1013.35 1011.74 1011.20 1011.70 1012.68 1013.00 1012.92 1012.07 1010.62 1009.85 1008.44
1014.21 1014.96 1015.34 1015.68 1015.72 1015.75 1015.87 1016.05 1016.39 1016.34 1016.23 1016.24 1016.27 1016.08 1016.33 1017.03 1017.17 1016.92 1017.25 1017.19 1017.03 1017.23 1017.28 1017.18 1016.95 1016.38 1015.63 1014.89 1013.88 1013.41 1013.18 1013.31 1013.37 1013.35 1012.05 1012.11 1012.19 1012.20 1012.32 1012.14 1011.33 1010.21 1009.11 1007.96
1014.64 1015.26 1015.44 1015.95 1016.49 1016.34 1016.45 1016.45 1016.95 1016.74 1016.68 1016.16 1015.57 1016.44 1016.41 1016.78 1016.90 1017.01 1017.17 1016.98 1017.35 1017.34 1017.53 1017.27 1016.88 1016.17 1015.40 1014.77 1014.32 1013.74 1013.25 1013.21 1013.03 1012.81 1012.57 1012.35 1011.82 1012.12 1011.78 1011.26 1010.47 1009.58 1008.57 1007.61
1014.91 1015.48 1016.00 1016.46 1016.80 1017.05 1016.85 1016.83 1017.18 1017.24 1017.19 1016.44 1015.74 1015.89 1016.34 1016.57 1016.66 1016.80 1017.08 1017.20 1017.30 1017.21 1017.31 1017.26 1016.70 1015.87 1015.55 1014.47 1013.77 1012.56 1012.53 1012.13 1012.56 1012.08 1012.14 1012.56 1011.67 1011.13 1011.31 1010.96 1009.88 1009.41 1008.81 1007.69
1015.49 1015.82 1016.33 1016.59 1016.89 1017.21 1016.64 1016.81 1017.61 1017.77 1017.57 1017.05 1016.09 1016.02 1016.16 1016.45 1016.66 1016.74 1016.86 1017.01 1017.23 1017.23 1017.59 1017.06 1016.28 1015.87 1016.10 1014.38 1012.62 1011.79 1011.52 1011.64 1011.72 1011.55 1011.74 1012.17 1011.80 1011.31 1010.89 1010.16 1009.65 1009.39 1008.91 1008.45
1015.89 1016.42 1016.57 1016.88 1017.39 1016.92 1016.85 1017.46 1017.74 1018.11 1017.95 1017.47 1016.58 1015.62 1016.03 1016.33 1016.35 1016.59 1016.84 1017.07 1017.12 1017.31 1017.41 1016.54 1015.74 1015.49 1015.81 1014.05 1012.22 1011.48 1011.41 1011.30 1011.44 1011.61 1011.57 1011.62 1011.15 1010.98 1010.50 1010.02 1009.44 1009.42 1009.12 1008.79
1016.30 1016.74 1017.07 1017.17 1017.26 1017.37 1017.26 1018.02 1018.32 1018.30 1017.85 1017.65 1016.96 1016.00 1015.76 1016.36 1016.01 1015.98 1016.51 1016.73 1017.17 1016.95 1016.28 1015.68 1015.13 1014.71 1014.71 1012.84 1011.19 1011.25 1011.58 1011.73 1011.56 1011.32 1011.19 1011.27 1011.42 1011.03 1010.55 1010.03 1009.60 1009.20 1008.98 1008.64
1016.73 1017.09 1017.18 1017.22 1017.20 1017.35 1017.76 1018.46 1018.69 1018.63 1018.59 1017.53 1017.08 1016.26 1015.83 1016.48 1016.32 1016.32 1016.36 1016.38 1015.89 1015.52 1015.30 1014.42 1014.21 1013.18 1012.48 1011.25 1011.15 1011.04 1011.68 1011.90 1011.75 1011.46 1011.35 1011.21 1011.02 1010.87 1010.68 1010.25 1009.85 1009.37 1009.08 1008.86
1017.37 1017.22 1017.19 1017.52 1017.87 1018.56 1018.58 1018.50 1018.24 1018.16 1017.99 1017.73 1016.90 1016.47 1016.00 1016.53 1015.92 1015.76 1015.96 1015.38 1014.68 1014.10 1013.33 1013.48 1012.96 1011.55 1010.80 1010.67 1010.83 1011.39 1011.75 1011.81 1011.81 1011.42 1011.22 1011.20 1011.05 1010.92 1010.81 1010.50 1010.15 1009.73 1009.34 1008.93
1017.12 1017.11 1017.48 1018.16 1018.57 1018.19 1018.14 1018.02 1017.93 1017.63 1017.19 1016.72 1016.17 1015.91 1015.71 1015.77 1015.78 1015.22 1015.11 1014.37 1013.88 1013.06 1012.47 1012.47 1011.35 1010.51 1010.93 1011.15 1011.24 1011.52 1011.86 1012.02 1011.97 1011.87 1011.71 1011.58 1011.39 1011.13 1010.93 1010.58 1010.35 1010.04 1009.72 1009.32
1017.39 1017.42 1017.97 1018.17 1018.20 1018.16 1018.15 1017.45 1017.21 1016.74 1015.73 1015.47 1015.29 1015.21 1015.39 1015.40 1015.64 1015.10 1014.52 1013.78 1013.44 1012.21 1012.26 1011.70 1010.26 1010.12 1010.54 1010.92 1011.29 1011.65 1012.01 1012.18 1012.10 1012.00 1011.85 1011.71 1011.57 1011.33 1011.09 1010.65 1010.17 1010.00 1009.88 1009.54
1017.42 1017.62 1017.93 1018.00 1018.22 1017.79 1017.25 1016.53 1015.93 1015.55 1015.32 1015.17 1015.22 1015.12 1014.93 1015.18 1015.37 1014.62 1013.95 1013.05 1012.09 1011.95 1011.41 1010.13 1009.86 1010.54 1011.05 1011.45 1011.88 1011.93 1011.99 1012.15 1012.04 1011.89 1011.73 1011.62 1011.54 1011.26 1010.97 1010.56 1010.30 1010.08 1009.77 1009.59
1017.53 1017.61 1017.65 1017.57 1017.25 1016.80 1015.94 1015.45 1015.08 1015.11 1015.11 1014.97 1014.95 1014.91 1014.67 1014.27 1014.28 1013.54 1012.80 1011.85 1011.73 1010.83 1010.14 1009.53 1010.25 1010.90 1011.46 1011.96 1012.21 1012.30 1012.06 1012.12 1012.03 1011.79 1011.64 1011.52 1011.39 1011.31 1011.18 1011.07 1010.90 1010.41 1009.95 1009.56
1017.45 1017.50 1016.87 1016.50 1016.06 1016.07 1015.92 1015.76 1015.49 1015.01 1014.89 1014.72 1014.66 1014.53 1014.53 1013.98 1013.54 1012.69 1011.99 1011.53 1010.78 1010.13 1009.91 1010.66 1011.28 1011.72 1012.09 1012.23 1012.58 1012.48 1012.41 1012.40 1012.20 1011.88 1011.85 1011.95 1011.80 1011.63 1011.29 1011.10 1010.90 1010.54 1010.09 1009.66
1017.43 1017.03 1016.36 1016.05 1016.12 1015.69 1015.73 1015.44 1015.03 1014.71 1014.51 1014.68 1014.89 1014.44 1013.87 1013.03 1012.43 1011.95 1011.22 1011.04 1010.43 1010.83 1011.34 1011.72 1012.03 1012.39 1012.80 1012.96 1012.98 1012.92 1012.96 1012.86 1012.65 1012.37 1012.27 1012.03 1011.97 1011.74 1011.41 1010.97 1010.68 1010.35 1009.99 1009.62
1016.68 1016.13 1015.96 1015.98 1015.85 1015.62 1015.38 1015.28 1014.72 1014.60 1014.62 1014.25 1014.24 1013.86 1013.09 1012.99 1012.30 1011.57 1010.93 1011.31 1011.60 1011.75 1011.74 1012.08 1012.44 1012.81 1013.16 1013.42 1013.47 1013.55 1013.46 1013.11 1012.86 1012.63 1012.46 1012.26 1012.00 1011.62 1011.00 1010.52 1010.30 1009.94 1009.47 1009.42
Wind_Speed
20 19 18 19 23 22 8 3 3 1 2 3 3 4 6 3 7 4 6 3 6 3 4 5 6 1 6 4 3 2 4 7 15 22 24 22 16 12 3 3 9 16 16 21
19 17 17 22 32 26 7 5 4 1 1 4 4 2 3 5 6 6 5 5 0 1 5 4 3 2 7 6 4 4 4 5 14 16 9 7 7 18 19 21 18 23 21 20
16 18 23 29 24 13 6 5 5 0 2 1 4 5 5 6 1 3 3 3 4 5 5 4 2 3 5 2 3 2 1 8 12 14 21 18 25 23 21 20 17 21 23 34
22 24 25 23 17 9 5 2 2 3 6 6 4 10 7 6 5 2 6 5 8 5 4 4 9 7 4 6 5 5 6 11 14 17 21 24 26 28 27 25 25 24 28 34
23 22 21 18 15 7 5 5 3 1 3 8 10 10 8 10 5 7 6 8 9 7 7 7 5 7 7 9 6 8 6 10 11 17 22 22 25 28 27 25 22 20 24 33
23 21 18 17 11 6 4 2 2 1 4 5 5 5 7 7 8 1 5 9 8 8 9 5 6 9 11 13 13 13 13 11 8 17 18 18 17 14 10 14 17 21 22 24
22 20 18 15 12 7 4 2 3 3 4 4 4 6 7 10 11 7 8 8 7 3 1 6 11 14 17 19 20 15 12 12 11 12 16 19 14 15 6 12 20 22 14 23
21 19 17 14 10 8 4 3 3 3 4 7 6 9 7 8 7 6 7 5 3 3 2 4 6 6 9 10 15 14 17 15 9 8 12 19 19 3 10 18 30 6 16 26
18 17 15 13 13 12 5 4 1 2 5 8 5 10 10 7 7 6 5 5 4 4 3 3 5 5 4 5 4 10 11 12 7 11 15 18 10 9 19 24 16 12 21 22
19 17 15 13 11 8 5 4 4 1 3 5 6 7 9 5 5 3 5 7 7 5 4 6 7 9 2 7 8 8 8 10 13 13 17 13 11 16 16 8 9 25 24 21
16 16 15 14 12 8 3 5 6 2 2 6 4 3 4 5 5 5 6 5 4 4 6 5 5 7 5 6 12 10 12 9 11 14 10 10 9 20 7 11 24 24 23 18
16 15 14 13 12 10 4 4 3 4 3 4 0 4 5 5 3 4 8 2 5 4 5 3 3 5 5 10 11 9 10 8 9 8 10 19 21 5 16 20 21 23 15 17
15 15 14 13 11 11 6 5 4 2 1 3 4 5 6 9 10 6 4 5 5 5 3 2 4 8 7 10 10 12 13 11 11 14 9 10 19 20 18 14 18 17 13 17
14 13 13 14 11 10 5 4 3 2 1 2 3 3 3 2 10 14 13 3 4 3 4 5 6 8 8 11 12 12 12 13 17 17 16 16 15 11 17 23 20 16 17 17
14 13 12 13 11 10 7 4 3 3 4 2 3 5 2 3 8 12 12 11 9 5 5 5 7 9 8 10 13 14 13 15 11 12 13 11 21 21 24 20 15 14 16 19
15 14 14 14 12 6 2 3 4 1 3 3 2 3 1 1 4 7 9 9 8 6 3 5 7 13 4 5 8 13 8 11 13 14 14 17 20 21 16 13 13 13 14 14
14 13 15 13 7 1 3 4 4 2 0 1 3 1 3 2 1 3 4 7 4 5 3 6 9 7 5 5 14 16 12 12 12 15 13 11 5 7 13 12 13 12 11 10
16 17 16 13 12 7 3 5 6 2 1 2 3 2 2 3 2 2 4 5 4 6 4 2 5 4 4 7 8 4 6 9 11 11 10 3 5 9 11 12 13 13 13 12
20 17 11 4 1 2 4 3 5 0 3 3 1 4 3 2 2 2 2 4 5 5 6 4 4 5 7 9 8 8 4 5 8 10 4 3 7 10 11 11 12 14 14 13
13 3 1 2 3 5 5 4 1 1 1 2 3 1 3 2 2 2 2 3 3 4 5 3 5 6 11 10 9 4 4 5 8 8 7 8 9 10 11 11 11 12 13 14
2 1 2 3 4 2 2 1 2 2 3 4 3 4 5 3 4 2 3 2 2 4 4 4 4 4 3 4 4 2 5 4 4 4 6 7 8 9 10 11 11 10 12 12
4 5 4 1 2 1 2 2 2 4 2 3 3 3 4 2 3 4 3 3 2 5 5 4 4 5 7 4 3 1 3 1 3 4 6 7 8 9 10 11 11 10 11 10
1 2 2 1 2 4 4 5 3 3 3 2 2 6 3 3 4 4 4 5 5 0 4 4 2 6 4 1 1 3 1 2 3 5 6 7 9 10 10 11 12 12 10 10
1 2 3 4 4 5 4 3 0 2 2 4 4 4 3 2 4 4 5 3 3 5 5 2 3 3 4 1 2 4 4 4 6 6 7 9 9 9 8 5 8 9 9 10
2 3 4 6 4 3 3 3 3 4 4 4 4 4 3 3 5 4 4 4 5 5 3 2 2 3 4 4 5 4 5 5 7 8 8 8 7 9 8 6 7 9 9 10
3 4 4 3 4 4 3 5 7 5 4 1 1 3 4 6 4 4 5 4 4 4 3 2 1 2 1 3 5 5 6 6 6 7 7 8 7 8 10 8 7 8 8 9
4 4 5 5 6 7 5 3 3 1 3 3 2 5 4 4 5 5 2 4 4 4 4 2 3 2 2 4 4 4 5 7 8 8 9 9 9 9 9 10 11 11 9 7
Wind_Direction
216 213 205 193 162 143 102 112 120 226 221 136 184 190 187 199 195 211 224 264 249 221 185 234 252 221 58 88 10 45 40 304 289 292 285 267 269 303 70 287 305 290 282 273
213 206 191 161 154 150 121 100 107 329 299 189 190 176 227 200 197 208 185 200 289 109 190 240 261 95 125 88 50 55 2 295 310 307 162 123 306 312 298 293 283 274 283 279
203 171 162 150 149 113 93 126 127 30 231 266 171 155 194 183 105 112 131 139 169 180 214 221 228 188 179 290 322 109 195 249 247 268 289 305 290 289 286 279 276 282 272 285
130 129 132 129 116 85 97 44 142 161 174 207 195 171 184 150 163 172 175 192 224 196 220 255 252 261 257 256 229 230 230 262 268 274 282 287 286 288 283 278 279 278 286 282
118 124 118 111 95 79 77 123 145 131 128 152 171 178 189 175 133 172 183 217 226 211 208 216 252 253 264 263 223 239 224 268 277 279 278 276 283 283 285 286 281 285 286 287
123 121 116 103 80 52 93 95 44 171 131 147 172 171 154 179 161 190 214 201 178 208 228 245 270 269 263 257 257 261 258 255 255 275 284 291 277 274 289 308 311 309 312 315
110 113 104 93 78 80 106 98 133 139 144 181 188 175 176 185 194 174 162 171 199 113 168 264 254 253 254 253 253 247 245 234 255 265 281 271 285 331 346 305 304 319 323 333
108 107 105 101 103 117 123 147 188 157 142 182 167 171 155 151 160 174 186 175 77 146 256 267 279 245 241 234 233 227 219 238 257 261 278 297 291 84 342 324 309 9 335 331
122 126 125 118 114 118 102 76 20 94 135 192 163 167 182 185 202 181 179 140 139 178 217 213 243 253 302 244 245 203 227 217 231 271 282 284 306 10 343 321 273 1 334 324
119 121 117 105 97 85 100 84 1 122 124 147 161 185 197 180 178 195 152 163 182 212 200 226 249 249 182 256 246 266 231 232 258 265 271 283 295 359 335 276 344 326 316 310
125 120 112 108 98 82 82 83 27 360 114 129 195 177 172 155 198 190 125 174 196 186 218 243 237 254 251 256 262 280 280 280 274 266 259 272 1 344 341 308 299 302 304 305
129 123 114 103 87 73 58 98 53 21 54 61 183 249 268 260 244 197 177 276 158 188 229 217 279 252 252 267 274 271 261 250 296 304 302 320 317 314 296 291 285 290 287 297
127 127 121 108 83 68 67 96 58 77 85 185 215 214 211 220 223 236 203 218 217 199 269 293 268 258 267 267 273 290 272 259 271 290 280 299 309 298 300 310 312 315 308 320
133 136 127 115 105 89 78 82 76 53 56 307 113 130 214 212 210 212 225 266 187 247 204 229 254 261 264 271 283 281 275 282 268 273 281 290 274 295 310 321 318 322 332 331
138 133 136 139 125 101 86 91 70 34 329 320 300 300 106 241 219 218 221 223 218 213 214 236 251 262 272 264 266 269 270 268 257 263 271 301 292 307 315 308 315 340 336 332
140 138 134 133 129 139 170 88 94 101 346 333 313 40 200 158 198 217 210 207 215 222 208 245 255 250 252 270 272 289 280 263 254 261 278 285 295 297 292 328 338 342 339 339
132 132 129 122 122 93 22 37 56 151 93 306 301 311 110 328 175 136 172 193 195 215 221 229 249 253 204 254 264 271 278 301 305 286 299 275 294 322 326 332 335 345 339 345
129 128 123 111 106 123 136 85 112 359 319 298 317 305 251 12 299 225 171 171 197 202 242 238 240 245 215 257 264 320 294 304 301 298 285 331 324 327 333 337 333 341 340 340
123 120 118 118 129 111 69 122 155 63 308 316 287 307 353 141 246 264 209 181 200 174 222 224 214 205 223 249 278 280 25 318 323 322 322 318 333 343 341 340 340 338 340 340
127 177 85 88 59 101 168 161 167 254 180 219 257 240 278 220 241 218 250 212 259 230 207 153 232 252 265 279 307 320 308 328 330 337 349 350 345 349 344 340 335 336 334 335
216 92 72 71 162 222 5 173 254 159 233 201 242 267 295 175 249 257 222 274 226 256 141 236 205 231 143 178 125 64 23 356 345 344 355 353 344 341 334 336 334 333 335 334
51 83 98 114 195 151 260 225 189 228 272 185 259 335 281 257 222 247 207 257 222 253 140 248 244 117 136 164 154 132 97 18 356 358 2 358 352 346 338 333 334 334 329 333
141 82 91 245 129 220 228 190 200 223 191 222 304 320 285 177 209 239 245 231 235 136 225 236 62 133 112 139 183 235 211 264 305 326 334 341 339 335 337 333 338 333 331 330
229 181 208 232 191 235 216 256 111 93 231 279 302 293 268 292 227 239 248 220 241 238 239 206 127 132 87 85 237 271 278 305 311 310 323 327 326 334 327 326 327 328 332 329
233 217 239 222 243 254 262 283 266 236 256 266 280 255 239 249 259 232 256 228 242 248 350 37 84 58 19 26 11 318 313 328 313 331 336 338 340 333 324 336 333 342 336 328
242 236 256 241 268 256 243 244 256 253 247 263 231 262 257 241 245 238 227 251 254 40 10 353 122 112 330 317 317 336 347 337 332 330 327 328 330 325 318 314 315 335 335 334
226 236 250 259 279 275 271 252 261 242 225 246 232 245 251 311 255 253 287 339 23 350 330 275 248 288 335 344 344 344 344 333 338 335 334 326 325 314 312 323 331 329 325 329